Time,TemperatureF,DewpointF,PressureIn,WindDirection,WindDirectionDegrees,WindSpeedMPH,WindSpeedGustMPH,Humidity,HourlyPrecipIn,Conditions,Clouds,dailyrainin,SoftwareType,DateUTC
2013-02-06 00:01:00,62.0,48.0,29.88,SSW,194,1.0,4.0,60,0.00,,,0.00,,2013-02-06 06:01:00,
2013-02-06 00:11:00,62.0,48.0,29.88,SSW,194,1.0,4.0,60,0.00,,,0.00,,2013-02-06 06:11:00,
2013-02-06 00:21:00,62.0,50.0,29.89,SW,229,1.0,2.0,64,0.00,,,0.00,,2013-02-06 06:21:00,
2013-02-06 00:32:00,61.0,51.0,29.89,SW,229,1.0,4.0,70,0.00,,,0.00,,2013-02-06 06:32:00,
2013-02-06 00:42:00,61.0,51.0,29.89,SW,229,1.0,4.0,70,0.00,,,0.00,,2013-02-06 06:42:00,
2013-02-06 00:51:00,59.0,52.0,29.88,South,181,1.0,4.0,78,0.00,,,0.00,,2013-02-06 06:51:00,
2013-02-06 01:01:00,58.0,53.0,29.83,SE,125,4.0,8.0,83,0.00,,,0.00,,2013-02-06 07:01:00,
2013-02-06 01:11:00,58.0,53.0,29.83,SE,125,4.0,8.0,83,0.00,,,0.00,,2013-02-06 07:11:00,
2013-02-06 01:21:00,60.0,56.0,29.84,SE,144,2.0,7.0,86,0.00,,,0.00,,2013-02-06 07:21:00,
2013-02-06 01:32:00,60.0,56.0,29.85,SW,222,3.0,7.0,86,0.00,,,0.00,,2013-02-06 07:32:00,
2013-02-06 01:42:00,60.0,56.0,29.85,SW,222,3.0,7.0,86,0.00,,,0.00,,2013-02-06 07:42:00,
2013-02-06 01:51:00,60.0,55.0,29.85,WSW,243,2.0,7.0,85,0.00,,,0.00,,2013-02-06 07:51:00,
2013-02-06 02:01:00,60.0,55.0,29.87,West,266,3.0,9.0,85,0.00,,,0.00,,2013-02-06 08:01:00,
2013-02-06 02:11:00,60.0,55.0,29.87,West,266,3.0,9.0,85,0.00,,,0.00,,2013-02-06 08:11:00,
2013-02-06 02:21:00,59.0,55.0,29.86,SSW,212,3.0,6.0,86,0.00,,,0.00,,2013-02-06 08:21:00,
2013-02-06 02:31:00,59.0,55.0,29.85,SSW,204,2.0,7.0,87,0.00,,,0.00,,2013-02-06 08:31:00,
2013-02-06 02:42:00,59.0,55.0,29.85,SSW,204,2.0,7.0,87,0.00,,,0.00,,2013-02-06 08:42:00,
2013-02-06 02:53:00,58.0,54.0,29.85,WSW,245,3.0,6.0,88,0.00,,,0.00,,2013-02-06 08:53:00,
2013-02-06 03:01:00,58.0,55.0,29.85,SSW,192,1.0,5.0,89,0.00,,,0.00,,2013-02-06 09:01:00,
2013-02-06 03:11:00,58.0,55.0,29.85,SSW,192,1.0,5.0,89,0.00,,,0.00,,2013-02-06 09:11:00,
2013-02-06 03:21:00,58.0,54.0,29.85,SW,224,1.0,7.0,88,0.00,,,0.00,,2013-02-06 09:21:00,
2013-02-06 03:31:00,58.0,54.0,29.85,West,276,1.0,7.0,87,0.00,,,0.00,,2013-02-06 09:31:00,
2013-02-06 03:41:00,58.0,54.0,29.85,West,276,1.0,7.0,87,0.00,,,0.00,,2013-02-06 09:41:00,
2013-02-06 03:51:00,58.0,54.0,29.85,West,262,0.0,4.0,86,0.00,,,0.00,,2013-02-06 09:51:00,
2013-02-06 04:01:00,58.0,54.0,29.85,SW,236,0.0,2.0,87,0.00,,,0.00,,2013-02-06 10:01:00,
2013-02-06 04:11:00,58.0,54.0,29.85,SW,236,0.0,2.0,87,0.00,,,0.00,,2013-02-06 10:11:00,
2013-02-06 04:21:00,58.0,54.0,29.86,SE,143,0.0,1.0,88,0.00,,,0.00,,2013-02-06 10:21:00,
2013-02-06 04:31:00,58.0,54.0,29.87,SE,142,0.0,1.0,88,0.00,,,0.00,,2013-02-06 10:31:00,
2013-02-06 04:42:00,58.0,54.0,29.87,SE,142,0.0,1.0,88,0.00,,,0.00,,2013-02-06 10:42:00,
2013-02-06 04:51:00,58.0,55.0,29.86,SW,225,0.0,2.0,89,0.00,,,0.00,,2013-02-06 10:51:00,
2013-02-06 05:01:00,59.0,56.0,29.86,SW,215,1.0,5.0,89,0.00,,,0.00,,2013-02-06 11:01:00,
2013-02-06 05:11:00,59.0,56.0,29.86,SW,215,1.0,5.0,89,0.00,,,0.00,,2013-02-06 11:11:00,
2013-02-06 05:22:00,59.0,56.0,29.86,SSW,204,0.0,4.0,90,0.00,,,0.00,,2013-02-06 11:22:00,
2013-02-06 05:32:00,59.0,56.0,29.87,SW,221,1.0,5.0,91,0.01,,,0.01,,2013-02-06 11:32:00,
2013-02-06 05:42:00,59.0,56.0,29.87,SW,221,1.0,5.0,91,0.01,,,0.01,,2013-02-06 11:42:00,
2013-02-06 05:52:00,58.0,56.0,29.87,SW,235,2.0,5.0,93,0.02,,,0.02,,2013-02-06 11:52:00,
2013-02-06 06:02:00,58.0,56.0,29.86,SSW,207,1.0,5.0,93,0.02,,,0.02,,2013-02-06 12:02:00,
2013-02-06 06:12:00,58.0,56.0,29.86,SSW,207,1.0,5.0,93,0.02,,,0.02,,2013-02-06 12:12:00,
2013-02-06 06:22:00,58.0,56.0,29.87,West,274,1.0,6.0,93,0.02,,,0.02,,2013-02-06 12:22:00,
2013-02-06 06:32:00,58.0,56.0,29.87,SW,214,1.0,4.0,92,0.01,,,0.02,,2013-02-06 12:32:00,
2013-02-06 06:42:00,58.0,56.0,29.87,SW,214,1.0,4.0,92,0.01,,,0.02,,2013-02-06 12:42:00,
2013-02-06 06:52:00,58.0,56.0,29.87,SW,221,1.0,4.0,92,0.00,,,0.02,,2013-02-06 12:52:00,
2013-02-06 07:01:00,58.0,56.0,29.86,SSW,213,1.0,3.0,92,0.00,,,0.02,,2013-02-06 13:01:00,
2013-02-06 07:12:00,58.0,56.0,29.86,SSW,213,1.0,3.0,92,0.00,,,0.02,,2013-02-06 13:12:00,
2013-02-06 07:22:00,58.0,56.0,29.87,SW,215,0.0,4.0,92,0.00,,,0.02,,2013-02-06 13:22:00,
2013-02-06 07:32:00,57.0,55.0,29.87,SW,229,0.0,1.0,92,0.00,,,0.02,,2013-02-06 13:32:00,
2013-02-06 07:42:00,57.0,55.0,29.87,SW,229,0.0,1.0,92,0.00,,,0.02,,2013-02-06 13:42:00,
2013-02-06 07:52:00,57.0,55.0,29.86,South,188,0.0,1.0,92,0.00,,,0.02,,2013-02-06 13:52:00,
2013-02-06 08:02:00,57.0,55.0,29.87,South,184,0.0,1.0,93,0.00,,,0.02,,2013-02-06 14:02:00,
2013-02-06 08:11:00,57.0,55.0,29.87,South,184,0.0,1.0,93,0.00,,,0.02,,2013-02-06 14:11:00,
2013-02-06 08:22:00,57.0,55.0,29.88,SSW,212,0.0,2.0,94,0.00,,,0.02,,2013-02-06 14:22:00,
2013-02-06 08:32:00,57.0,55.0,29.89,SSW,201,0.0,1.0,94,0.00,,,0.02,,2013-02-06 14:32:00,
2013-02-06 08:42:00,57.0,55.0,29.89,SSW,201,0.0,1.0,94,0.00,,,0.02,,2013-02-06 14:42:00,
2013-02-06 08:52:00,57.0,55.0,29.89,SSW,201,0.0,0.0,94,0.00,,,0.02,,2013-02-06 14:52:00,
2013-02-06 09:01:00,58.0,56.0,29.88,SSE,150,1.0,2.0,94,0.00,,,0.02,,2013-02-06 15:01:00,
2013-02-06 09:11:00,58.0,56.0,29.88,SSE,150,1.0,2.0,94,0.00,,,0.02,,2013-02-06 15:11:00,
2013-02-06 09:21:00,58.0,56.0,29.88,SSE,147,1.0,4.0,94,0.00,,,0.02,,2013-02-06 15:21:00,
2013-02-06 09:31:00,59.0,57.0,29.89,South,181,0.0,3.0,93,0.00,,,0.02,,2013-02-06 15:31:00,
2013-02-06 09:41:00,59.0,57.0,29.89,South,181,0.0,3.0,93,0.00,,,0.02,,2013-02-06 15:41:00,
2013-02-06 09:52:00,59.0,57.0,29.89,South,170,1.0,5.0,93,0.00,,,0.02,,2013-02-06 15:52:00,
2013-02-06 10:01:00,60.0,58.0,29.88,SE,145,2.0,5.0,92,0.00,,,0.02,,2013-02-06 16:01:00,
2013-02-06 10:11:00,60.0,58.0,29.88,SE,145,2.0,5.0,92,0.00,,,0.02,,2013-02-06 16:11:00,
2013-02-06 10:21:00,61.0,58.0,29.88,South,176,2.0,6.0,90,0.00,,,0.02,,2013-02-06 16:21:00,
2013-02-06 10:32:00,61.0,58.0,29.89,South,190,1.0,6.0,90,0.00,,,0.02,,2013-02-06 16:32:00,
2013-02-06 10:42:00,61.0,58.0,29.89,South,190,1.0,6.0,90,0.00,,,0.02,,2013-02-06 16:42:00,
2013-02-06 10:51:00,61.0,58.0,29.88,SW,217,2.0,7.0,90,0.00,,,0.02,,2013-02-06 16:51:00,
2013-02-06 11:02:00,61.0,58.0,29.89,South,188,1.0,6.0,90,0.00,,,0.02,,2013-02-06 17:02:00,
2013-02-06 11:11:00,61.0,58.0,29.89,South,188,1.0,6.0,90,0.00,,,0.02,,2013-02-06 17:11:00,
2013-02-06 11:21:00,62.0,58.0,29.88,WSW,240,2.0,6.0,88,0.00,,,0.02,,2013-02-06 17:21:00,
2013-02-06 11:32:00,62.0,58.0,29.87,WSW,252,3.0,9.0,87,0.00,,,0.02,,2013-02-06 17:32:00,
2013-02-06 11:42:00,62.0,58.0,29.87,WSW,252,3.0,9.0,87,0.00,,,0.02,,2013-02-06 17:42:00,
2013-02-06 11:52:00,63.0,59.0,29.86,SSW,201,2.0,6.0,86,0.00,,,0.02,,2013-02-06 17:52:00,
2013-02-06 12:01:00,65.0,59.0,29.86,SW,219,2.0,5.0,81,0.00,,,0.02,,2013-02-06 18:01:00,
2013-02-06 12:11:00,65.0,58.0,29.85,SSE,162,2.0,7.0,79,0.00,,,0.02,,2013-02-06 18:11:00,
2013-02-06 12:23:00,65.0,58.0,29.85,SSE,162,2.0,7.0,79,0.00,,,0.02,,2013-02-06 18:23:00,
2013-02-06 12:32:00,66.0,60.0,29.85,South,184,0.0,5.0,80,0.00,,,0.02,,2013-02-06 18:32:00,
2013-02-06 12:42:00,66.0,60.0,29.85,South,184,0.0,5.0,80,0.00,,,0.02,,2013-02-06 18:42:00,
2013-02-06 12:52:00,68.0,60.0,29.84,SW,236,1.0,3.0,75,0.00,,,0.02,,2013-02-06 18:52:00,
2013-02-06 13:01:00,69.0,59.0,29.83,SW,226,0.0,5.0,71,0.00,,,0.02,,2013-02-06 19:01:00,
2013-02-06 13:11:00,69.0,59.0,29.83,SW,226,0.0,5.0,71,0.00,,,0.02,,2013-02-06 19:11:00,
2013-02-06 13:21:00,70.0,59.0,29.82,South,188,2.0,8.0,69,0.00,,,0.02,,2013-02-06 19:21:00,
2013-02-06 13:32:00,70.0,59.0,29.81,WNW,284,1.0,5.0,68,0.00,,,0.02,,2013-02-06 19:32:00,
2013-02-06 13:41:00,70.0,59.0,29.81,WNW,284,1.0,5.0,68,0.00,,,0.02,,2013-02-06 19:41:00,
2013-02-06 13:52:00,70.0,59.0,29.81,WNW,284,1.0,5.0,68,0.00,,,0.02,,2013-02-06 19:52:00,
2013-02-06 14:01:00,74.0,61.0,29.79,WSW,246,2.0,5.0,63,0.00,,,0.02,,2013-02-06 20:01:00,
2013-02-06 14:11:00,72.0,59.0,29.78,SW,229,1.0,7.0,64,0.00,,,0.02,,2013-02-06 20:11:00,
2013-02-06 14:21:00,72.0,59.0,29.78,SW,229,1.0,7.0,64,0.00,,,0.02,,2013-02-06 20:21:00,
2013-02-06 14:32:00,74.0,61.0,29.77,SW,232,2.0,6.0,63,0.00,,,0.02,,2013-02-06 20:32:00,
2013-02-06 14:42:00,74.0,61.0,29.77,SW,232,2.0,6.0,63,0.00,,,0.02,,2013-02-06 20:42:00,
2013-02-06 14:52:00,74.0,59.0,29.76,SW,228,3.0,6.0,60,0.00,,,0.02,,2013-02-06 20:52:00,
2013-02-06 15:02:00,72.0,59.0,29.76,SSW,208,1.0,4.0,64,0.00,,,0.02,,2013-02-06 21:02:00,
2013-02-06 15:11:00,72.0,59.0,29.76,SSW,208,1.0,4.0,64,0.00,,,0.02,,2013-02-06 21:11:00,
2013-02-06 15:21:00,74.0,59.0,29.76,West,264,1.0,6.0,60,0.00,,,0.02,,2013-02-06 21:21:00,
2013-02-06 15:32:00,72.0,58.0,29.75,SW,226,1.0,5.0,62,0.00,,,0.02,,2013-02-06 21:32:00,
2013-02-06 15:42:00,72.0,58.0,29.75,SW,226,1.0,5.0,62,0.00,,,0.02,,2013-02-06 21:42:00,
2013-02-06 15:51:00,71.0,58.0,29.75,SSE,167,2.0,8.0,64,0.00,,,0.02,,2013-02-06 21:51:00,
2013-02-06 16:01:00,70.0,58.0,29.74,SW,221,2.0,8.0,65,0.00,,,0.02,,2013-02-06 22:01:00,
2013-02-06 16:11:00,70.0,58.0,29.74,SW,221,2.0,8.0,65,0.00,,,0.02,,2013-02-06 22:11:00,
2013-02-06 16:21:00,72.0,59.0,29.73,SSW,212,2.0,6.0,64,0.00,,,0.02,,2013-02-06 22:21:00,
2013-02-06 16:31:00,73.0,59.0,29.72,SW,235,2.0,7.0,62,0.00,,,0.02,,2013-02-06 22:31:00,
2013-02-06 16:42:00,73.0,59.0,29.72,SW,235,2.0,7.0,62,0.00,,,0.02,,2013-02-06 22:42:00,
2013-02-06 16:51:00,72.0,58.0,29.73,SW,218,3.0,9.0,62,0.00,,,0.02,,2013-02-06 22:51:00,
2013-02-06 17:01:00,70.0,57.0,29.73,South,188,2.0,6.0,64,0.00,,,0.02,,2013-02-06 23:01:00,
2013-02-06 17:11:00,70.0,57.0,29.73,South,188,2.0,6.0,64,0.00,,,0.02,,2013-02-06 23:11:00,
2013-02-06 17:21:00,70.0,57.0,29.73,SW,219,2.0,8.0,64,0.00,,,0.02,,2013-02-06 23:21:00,
2013-02-06 17:32:00,70.0,57.0,29.74,South,181,3.0,9.0,64,0.00,,,0.02,,2013-02-06 23:32:00,
2013-02-06 17:42:00,70.0,57.0,29.74,South,181,3.0,9.0,64,0.00,,,0.02,,2013-02-06 23:42:00,
2013-02-06 17:52:00,69.0,56.0,29.73,SW,230,3.0,8.0,64,0.00,,,0.02,,2013-02-06 23:52:00,
2013-02-06 18:01:00,69.0,57.0,29.74,WSW,243,3.0,7.0,66,0.00,,,0.02,,2013-02-07 00:01:00,
2013-02-06 18:11:00,69.0,57.0,29.74,WSW,243,3.0,7.0,66,0.00,,,0.02,,2013-02-07 00:11:00,
2013-02-06 18:21:00,68.0,57.0,29.75,WSW,248,2.0,9.0,68,0.00,,,0.02,,2013-02-07 00:21:00,
2013-02-06 18:31:00,67.0,57.0,29.75,SSW,212,4.0,10.0,70,0.00,,,0.02,,2013-02-07 00:31:00,
2013-02-06 18:42:00,67.0,57.0,29.75,SSW,212,4.0,10.0,70,0.00,,,0.02,,2013-02-07 00:42:00,
2013-02-06 18:51:00,66.0,57.0,29.76,South,181,1.0,5.0,72,0.00,,,0.02,,2013-02-07 00:51:00,
2013-02-06 19:01:00,65.0,56.0,29.77,SW,235,3.0,7.0,73,0.00,,,0.02,,2013-02-07 01:01:00,
2013-02-06 19:11:00,65.0,56.0,29.77,SW,235,3.0,7.0,73,0.00,,,0.02,,2013-02-07 01:11:00,
2013-02-06 19:21:00,64.0,56.0,29.78,SW,217,1.0,7.0,74,0.00,,,0.02,,2013-02-07 01:21:00,
2013-02-06 19:31:00,63.0,55.0,29.79,South,179,2.0,5.0,76,0.00,,,0.02,,2013-02-07 01:31:00,
2013-02-06 19:42:00,63.0,55.0,29.79,South,179,2.0,5.0,76,0.00,,,0.02,,2013-02-07 01:42:00,
2013-02-06 19:52:00,63.0,56.0,29.78,SW,218,2.0,7.0,77,0.00,,,0.02,,2013-02-07 01:52:00,
2013-02-06 20:01:00,62.0,55.0,29.78,SSW,210,3.0,9.0,78,0.00,,,0.02,,2013-02-07 02:01:00,
2013-02-06 20:11:00,62.0,55.0,29.78,SSW,210,3.0,9.0,78,0.00,,,0.02,,2013-02-07 02:11:00,
2013-02-06 20:21:00,62.0,55.0,29.78,SSW,210,3.0,9.0,78,0.00,,,0.02,,2013-02-07 02:21:00,
2013-02-06 20:31:00,61.0,55.0,29.78,SSE,167,1.0,7.0,81,0.00,,,0.02,,2013-02-07 02:31:00,
2013-02-06 20:42:00,61.0,55.0,29.78,SSE,167,1.0,7.0,81,0.00,,,0.02,,2013-02-07 02:42:00,
2013-02-06 20:52:00,61.0,55.0,29.78,SSE,167,1.0,7.0,81,0.00,,,0.02,,2013-02-07 02:52:00,
2013-02-06 21:02:00,59.0,54.0,29.80,SSE,150,1.0,4.0,84,0.00,,,0.02,,2013-02-07 03:02:00,
2013-02-06 21:11:00,59.0,54.0,29.80,SSE,150,1.0,4.0,84,0.00,,,0.02,,2013-02-07 03:11:00,
2013-02-06 21:21:00,59.0,55.0,29.80,South,178,1.0,5.0,86,0.00,,,0.02,,2013-02-07 03:21:00,
2013-02-06 21:31:00,59.0,55.0,29.81,South,178,1.0,7.0,86,0.00,,,0.02,,2013-02-07 03:31:00,
2013-02-06 21:42:00,59.0,55.0,29.81,South,178,1.0,7.0,86,0.00,,,0.02,,2013-02-07 03:42:00,
2013-02-06 21:51:00,59.0,55.0,29.81,SW,224,2.0,8.0,86,0.00,,,0.02,,2013-02-07 03:51:00,
2013-02-06 22:01:00,60.0,56.0,29.81,SW,218,2.0,6.0,86,0.00,,,0.02,,2013-02-07 04:01:00,
2013-02-06 22:11:00,60.0,56.0,29.81,SW,218,2.0,6.0,86,0.00,,,0.02,,2013-02-07 04:11:00,
2013-02-06 22:22:00,60.0,56.0,29.81,SW,224,3.0,9.0,87,0.00,,,0.02,,2013-02-07 04:22:00,
2013-02-06 22:31:00,60.0,56.0,29.82,SSW,204,3.0,8.0,87,0.00,,,0.02,,2013-02-07 04:31:00,
2013-02-06 22:41:00,60.0,56.0,29.82,SSW,204,3.0,8.0,87,0.00,,,0.02,,2013-02-07 04:41:00,
2013-02-06 22:52:00,60.0,56.0,29.82,SSW,213,2.0,7.0,88,0.00,,,0.02,,2013-02-07 04:52:00,
2013-02-06 23:02:00,60.0,56.0,29.82,SW,215,2.0,8.0,88,0.00,,,0.02,,2013-02-07 05:02:00,
2013-02-06 23:12:00,60.0,56.0,29.82,SW,215,2.0,8.0,88,0.00,,,0.02,,2013-02-07 05:12:00,
2013-02-06 23:21:00,60.0,57.0,29.81,WSW,240,3.0,6.0,89,0.00,,,0.02,,2013-02-07 05:21:00,
2013-02-06 23:32:00,60.0,57.0,29.81,SSW,212,2.0,7.0,89,0.00,,,0.02,,2013-02-07 05:32:00,
2013-02-06 23:42:00,60.0,57.0,29.81,SSW,212,2.0,7.0,89,0.00,,,0.02,,2013-02-07 05:42:00,
2013-02-06 23:52:00,60.0,57.0,29.81,SSW,196,2.0,7.0,90,0.00,,,0.02,,2013-02-07 05:52:00,